Date,TemperatureHighF,TemperatureAvgF,TemperatureLowF,DewpointHighF,DewpointAvgF,DewpointLowF,HumidityHigh,HumidityAvg,HumidityLow,PressureMaxIn,PressureMinIn,WindSpeedMaxMPH,WindSpeedAvgMPH,GustSpeedMaxMPH,PrecipitationSumIn
2013-1-1,35,31,19,28,18,-100,81,63,50,29.91,29.74,7,-6,9,0.00
2013-1-2,28,20,13,14,6,-100,68,57,51,30.06,29.88,6,1,11,0.00
2013-1-3,27,17,7,13,4,-100,67,55,47,30.06,29.94,4,1,5,0.00
2013-1-4,37,29,21,22,16,-100,72,61,52,29.94,29.80,9,1,13,0.04
2013-1-5,42,31,24,24,19,15,72,59,46,30.18,29.85,9,1,11,0.04
2013-1-6,44,33,26,27,23,-100,80,67,50,30.12,29.88,5,0,6,0.13
2013-1-7,42,33,23,28,23,17,78,66,47,30.30,29.94,8,1,8,0.00
2013-1-8,46,31,21,29,22,-100,80,68,50,30.30,30.24,7,1,8,0.04
2013-1-9,41,34,24,33,27,19,80,75,63,30.30,30.03,8,1,10,0.00
2013-1-10,47,37,32,30,21,-100,78,56,40,30.47,30.09,7,1,12,0.00
2013-1-11,40,33,28,38,25,-100,94,73,57,30.45,30.06,6,-45,7,0.33
2013-1-12,44,40,37,44,39,-100,100,98,94,30.09,30.03,3,0,4,0.08
2013-1-13,45,41,38,45,40,-100,100,99,100,30.09,29.94,5,-112,6,0.00
2013-1-14,51,43,35,51,43,32,100,98,87,30.24,29.83,6,-132,8,0.04
2013-1-15,35,33,31,33,29,24,94,84,69,30.24,30.15,7,-34,8,0.00
2013-1-17,40,33,27,31,26,-100,93,75,53,30.00,29.80,7,-126,8,0.13
2013-1-18,29,23,18,14,8,-100,62,50,38,30.33,29.91,7,-142,9,0.00
2013-1-19,43,33,20,27,19,-100,59,55,51,30.27,29.80,4,-938,4,0.08
2013-1-20,49,37,25,30,21,-100,68,52,40,29.91,29.59,8,-363,10,0.04
2013-1-21,28,24,19,17,10,5,76,51,43,29.97,29.68,8,-209,10,0.00
2013-1-22,24,17,10,13,2,-100,74,48,38,30.03,29.68,8,-202,11,0.00
2013-1-23,20,12,7,3,-5,-100,46,42,37,30.06,29.97,6,-95,8,0.00
2013-1-24,23,12,5,4,-5,-100,48,41,35,30.21,29.97,9,-70,11,0.00
2013-1-25,22,15,8,10,0,-10,68,45,39,30.24,29.91,5,-7,6,0.00
2013-1-26,24,16,10,11,3,-100,73,57,44,30.24,29.91,9,-260,11,0.00
2013-1-27,32,19,10,13,-6,-100,62,42,35,30.39,30.21,6,-503,8,0.00
2013-1-28,32,26,18,29,18,6,89,71,54,30.39,29.91,6,-314,6,0.00
2013-1-29,48,36,32,46,35,-100,100,96,88,30.06,29.91,6,-103,7,0.21
2013-1-30,54,45,36,54,43,-100,100,98,100,30.03,29.32,7,-81,10,0.25
2013-1-31,57,42,26,57,38,-100,100,84,53,29.62,29.00,18,-63,29,0.16
2013-2-1,33,24,20,14,7,-100,58,47,41,30.06,29.62,10,-14,13,0.00
2013-2-2,30,22,16,15,8,-100,71,53,42,30.15,29.94,9,-15,13,0.00
2013-2-3,30,23,16,17,13,-100,76,66,51,29.94,29.68,5,-113,5,0.00
2013-2-4,31,23,18,18,7,-100,79,53,42,29.85,29.68,6,-44,10,0.00
2013-2-5,30,24,22,21,14,-100,80,67,54,29.88,29.80,4,1,5,0.00
2013-2-6,38,27,22,26,14,-100,84,63,50,30.27,29.80,6,-54,8,0.08
2013-2-7,32,23,17,13,1,-100,58,44,40,30.39,30.21,6,2,8,0.00
2013-2-8,30,26,23,30,15,-100,100,75,50,30.27,29.62,19,-19,19,0.00
2013-2-9,24,19,14,23,6,-100,98,75,52,30.21,29.68,25,-68,25,0.00
2013-2-10,34,20,9,14,2,-100,57,47,34,30.36,30.18,7,-369,8,0.13
2013-2-11,40,34,23,40,31,12,100,89,56,30.24,29.62,5,-211,8,0.16
2013-2-12,45,36,33,37,28,-100,100,80,53,29.88,29.62,10,-157,11,0.00
2013-2-13,45,35,26,28,23,20,84,63,44,29.83,29.65,6,-203,8,0.00
2013-2-14,46,33,26,29,22,-100,88,67,44,29.91,29.65,5,-182,7,0.04
2013-2-15,52,39,28,32,26,22,79,62,44,29.91,29.83,8,-202,10,0.00
2013-2-16,37,32,26,30,20,-100,87,63,48,29.91,29.68,8,-169,8,0.05
2013-2-17,31,23,14,12,5,-2,49,42,31,29.80,29.53,14,-247,14,0.00
2013-2-18,35,23,13,12,5,-2,50,43,33,30.12,29.80,8,-123,10,0.00
2013-2-19,42,33,22,38,24,10,100,71,50,30.12,29.59,14,-274,14,0.29
2013-2-20,33,28,22,33,18,8,100,65,46,29.83,29.59,10,-97,12,0.00
2013-2-21,35,25,21,14,10,-100,57,50,42,30.21,29.80,10,-143,10,0.00
2013-2-22,37,29,20,23,15,-100,68,57,48,30.30,30.15,7,-594,10,0.00
2013-2-23,38,34,32,36,30,-100,98,87,66,30.21,29.77,7,-672,7,0.12
2013-2-24,41,34,30,37,30,-100,99,89,66,29.88,29.68,0,-999,0,0.08
2013-2-25,45,35,27,27,24,21,80,64,47,30.18,29.88,8,-728,10,0.00
2013-2-26,42,34,27,30,24,-100,89,67,49,30.24,29.88,8,-677,8,0.04
2013-2-27,42,38,33,42,37,29,100,98,86,29.88,29.44,21,-451,21,0.88
2013-2-28,46,38,34,45,37,-100,100,98,86,29.56,29.47,3,-740,4,0.08
2013-3-1,46,37,32,37,31,-100,100,80,53,29.71,29.50,7,-20,9,0.00
2013-3-2,38,33,28,25,23,20,77,64,52,29.68,29.62,7,-382,7,0.00
2013-3-3,37,30,26,26,20,16,80,67,48,29.68,29.59,7,-119,9,0.00
2013-3-4,42,32,26,23,17,-100,63,53,43,29.80,29.65,8,-221,10,0.00
2013-3-5,46,36,27,26,21,17,69,55,43,29.97,29.80,14,-19,14,0.00
2013-3-6,41,37,35,35,27,23,84,68,58,29.94,29.85,23,-36,23,0.00
2013-3-7,35,33,31,32,27,-100,96,81,61,30.03,29.88,11,-60,11,0.08
2013-3-8,36,32,29,30,28,27,93,87,69,30.15,29.88,10,3,12,0.00
2013-3-9,48,36,28,33,27,-100,87,72,48,30.24,30.12,8,2,10,0.46
2013-3-10,52,38,25,33,28,22,88,68,46,30.27,30.21,8,2,8,0.00
2013-3-11,52,43,35,45,36,29,93,79,57,30.24,30.03,9,-23,10,0.00
2013-3-12,53,49,38,53,48,38,100,99,92,30.03,29.62,13,-94,13,1.33
2013-3-13,52,40,32,41,33,26,100,81,42,29.80,29.71,8,-33,10,0.00
2013-3-14,36,31,26,28,14,-100,82,50,40,29.83,29.74,10,-10,11,0.00
2013-3-15,41,31,24,26,13,-100,72,50,40,29.83,29.62,8,-105,8,0.00
2013-3-16,37,32,28,26,20,-100,80,61,44,29.83,29.68,6,-101,6,0.00
2013-3-17,38,31,23,26,16,-100,82,53,32,30.21,29.83,10,2,12,0.00
2013-3-18,35,28,21,23,12,-100,81,50,37,30.30,29.97,12,4,13,0.00
2013-3-19,37,32,28,34,28,-100,98,89,78,29.97,29.62,15,3,21,0.16
2013-3-20,40,31,23,27,21,-100,88,66,45,29.77,29.68,6,-3,8,0.17
2013-3-21,39,32,27,23,18,12,75,55,39,29.74,29.53,10,-24,10,0.00
2013-3-22,42,31,22,21,16,11,63,52,43,29.77,29.59,7,-125,8,0.00
2013-3-23,46,35,29,23,18,-100,60,50,39,29.83,29.71,11,-27,11,0.00
2013-3-24,46,35,26,24,17,-100,60,49,40,29.83,29.68,10,-29,10,0.00
2013-3-25,45,38,33,25,21,19,58,51,43,29.68,29.41,13,-77,14,0.00
2013-3-26,50,40,32,29,23,17,66,52,41,29.80,29.53,9,-11,9,0.00
2013-3-27,52,39,28,28,21,-100,68,49,36,29.88,29.77,7,-45,10,0.00
2013-3-28,48,40,32,33,26,19,71,58,49,30.03,29.85,10,-58,10,0.00
2013-3-29,56,42,33,31,24,-100,67,50,37,30.06,29.97,6,-45,6,0.00
2013-3-30,57,41,32,30,18,-100,75,46,27,30.06,29.97,6,-3,9,0.00
2013-3-31,55,39,31,38,16,-100,83,49,36,30.06,29.62,11,3,19,0.08
2013-4-1,59,41,32,43,24,-100,92,64,42,29.83,29.53,9,2,11,0.04
2013-4-2,45,32,27,17,5,-100,54,38,26,29.97,29.80,9,-2,11,0.00
2013-4-3,47,32,27,18,1,-100,48,33,12,30.21,29.94,10,3,10,0.00
2013-4-4,54,36,25,23,7,-100,50,36,26,30.27,30.00,9,-3,10,0.00
2013-4-5,62,45,36,27,13,-100,57,34,6,30.00,29.65,7,2,9,0.00
2013-4-6,50,39,30,16,2,-100,49,26,8,30.24,29.91,11,2,18,0.00
2013-4-7,57,44,33,37,27,13,75,51,38,30.21,29.91,15,3,17,0.00
2013-4-8,68,53,39,41,35,-100,83,56,35,30.03,29.91,7,-3,9,0.00
2013-4-9,77,63,49,51,41,34,80,48,29,29.94,29.85,12,2,15,0.00
2013-4-10,65,57,49,54,48,37,93,74,45,29.91,29.80,9,2,12,0.21
2013-4-11,58,51,43,55,41,28,98,72,49,30.03,29.77,10,2,10,0.00
2013-4-12,45,40,37,39,35,28,97,81,59,30.00,29.68,20,6,23,0.33
2013-4-13,55,45,37,39,34,-100,97,71,47,29.91,29.71,6,1,8,0.08
2013-4-14,54,45,38,34,28,21,74,53,37,30.15,29.88,9,-2,10,0.00
2013-4-15,60,47,35,34,28,-100,69,49,37,30.33,30.15,9,2,11,0.00
2013-4-16,46,43,42,36,29,25,70,58,49,30.30,30.27,4,1,6,0.00
2013-4-17,67,55,46,48,34,-100,90,48,33,30.27,30.09,8,2,11,0.00
2013-4-18,62,52,45,46,34,-100,81,54,38,30.30,30.09,14,4,18,0.00
2013-4-19,72,61,52,63,57,-100,99,87,69,30.09,29.65,11,4,13,0.29
2013-4-20,61,50,41,60,36,-100,100,66,36,30.24,29.65,8,2,10,0.33
2013-4-21,53,42,33,26,20,16,55,42,30,30.56,30.24,10,2,16,0.00
2013-4-22,59,45,34,31,26,19,72,49,31,30.59,30.45,16,-9,20,0.00
2013-4-23,50,42,35,37,32,24,78,66,59,30.45,30.06,10,3,10,0.00
2013-4-24,71,53,38,47,41,33,90,66,42,30.06,29.80,10,3,11,0.00
2013-4-25,63,53,43,50,31,-100,88,46,25,30.21,29.80,8,-35,12,0.00
2013-4-26,64,50,37,37,28,-100,68,45,32,30.39,30.18,9,-41,11,0.00
2013-4-27,67,52,39,34,19,-100,56,33,4,30.39,30.24,7,2,9,0.00
2013-4-28,71,52,41,42,24,-100,66,41,33,30.27,30.15,9,2,12,0.00
2013-4-29,57,50,50,44,28,-100,72,52,37,30.21,30.15,9,3,12,0.00
2013-4-30,69,54,49,41,26,-100,69,41,17,30.30,30.15,13,2,13,0.00
2013-5-1,72,55,40,38,28,-100,57,40,19,30.45,30.27,11,2,12,0.00
2013-5-2,78,60,43,45,39,-100,81,50,29,30.42,30.27,10,2,13,0.00
2013-5-3,70,56,49,39,28,-100,60,39,31,30.42,30.30,11,3,12,0.00
2013-5-4,76,48,44,45,16,-100,83,44,29,30.33,30.18,11,-1,15,0.00
2013-5-5,69,45,42,40,15,-100,78,47,33,30.27,30.15,11,-2,11,0.00
2013-5-6,71,45,41,47,16,-100,88,53,42,30.21,30.09,10,-2,10,0.00
2013-5-7,77,59,47,54,40,-100,89,60,36,30.15,30.06,9,2,10,0.00
2013-5-8,65,60,55,63,57,-100,100,92,76,30.12,29.97,15,3,15,0.67
2013-5-9,62,57,53,61,57,53,100,99,92,30.00,29.85,4,1,6,0.46
2013-5-10,78,64,50,61,53,50,100,72,41,29.94,29.88,6,1,8,0.00
2013-5-11,65,62,58,64,59,-100,100,94,73,29.91,29.71,6,1,8,0.33
2013-5-12,68,58,47,61,44,-100,100,68,34,29.85,29.65,7,2,10,0.00
2013-5-13,57,47,39,33,29,-100,71,49,36,30.03,29.85,10,2,13,0.00
2013-5-14,60,48,37,34,30,-100,75,53,32,30.03,29.94,6,1,8,0.00
2013-5-15,64,50,38,50,38,-100,87,67,51,30.00,29.65,8,1,13,0.04
2013-5-16,83,65,51,52,44,-100,93,54,27,29.83,29.68,9,2,10,0.00
2013-5-17,70,58,51,43,36,-100,72,46,35,30.18,29.83,7,2,9,0.00
2013-5-18,70,57,46,49,44,39,79,63,40,30.27,30.18,6,1,7,0.00
2013-5-19,57,55,54,57,53,-100,100,93,76,30.27,30.15,6,1,8,0.25
2013-5-20,79,65,56,73,62,56,100,91,68,30.15,29.94,5,0,6,0.04
2013-5-21,89,73,59,72,65,58,99,80,51,29.97,29.83,6,1,6,0.00
2013-5-22,78,68,59,69,64,-100,98,88,72,29.91,29.85,10,1,10,0.16
2013-5-23,73,67,64,71,66,64,100,98,93,29.91,29.65,5,1,8,1.54
2013-5-24,64,55,42,64,54,-100,100,99,89,29.91,29.68,8,2,11,0.21
2013-5-25,48,43,42,48,40,-100,100,97,100,29.91,29.80,7,4,12,0.78
2013-5-26,63,50,43,49,36,-100,100,70,43,30.15,29.80,8,3,11,0.00
2013-5-27,73,52,43,44,30,-100,84,53,33,30.18,30.09,5,-3,8,0.00
2013-5-28,68,51,48,56,35,-100,97,70,44,30.18,30.12,4,1,6,0.17
2013-5-29,78,64,56,70,57,-100,99,88,75,30.12,29.97,5,1,6,0.00
2013-5-30,91,74,62,71,64,-100,98,77,44,30.12,30.06,3,0,5,0.00
2013-5-31,93,76,64,72,64,62,94,70,40,30.15,29.97,5,-62,7,0.00
2013-6-1,90,75,63,70,65,60,93,73,44,30.03,29.91,8,1,8,0.00
2013-6-2,87,75,67,70,66,-100,94,77,51,29.91,29.77,8,-11,8,0.04
2013-6-3,78,69,60,68,63,48,99,82,63,29.88,29.80,6,-41,6,0.91
2013-6-4,74,62,51,49,44,40,74,55,35,30.12,29.88,6,-32,6,0.00
2013-6-5,75,62,51,49,44,38,72,53,38,30.18,30.09,5,1,6,0.00
2013-6-6,69,59,52,56,50,-100,93,72,49,30.12,30.03,8,2,10,0.17
2013-6-7,60,58,55,60,57,54,100,98,91,30.03,29.68,10,-134,10,1.86
2013-6-8,74,61,54,71,58,-100,100,95,83,30.06,29.62,5,-240,5,0.63
2013-6-9,77,65,57,62,54,-100,100,75,47,30.18,30.06,5,0,6,0.00
2013-6-10,70,58,59,65,48,-100,100,86,81,30.18,29.85,12,2,16,0.99
2013-6-11,77,63,59,75,58,-100,100,94,82,29.85,29.62,9,2,12,0.79
2013-6-12,74,64,58,60,53,-100,92,71,48,29.85,29.68,7,2,8,0.00
2013-6-13,58,56,52,57,55,51,100,95,87,29.83,29.53,15,3,15,1.41
2013-6-14,71,58,50,68,56,-100,100,96,78,29.85,29.56,7,1,8,0.54
2013-6-15,79,64,54,60,54,51,100,74,40,29.97,29.85,6,1,6,0.00
2013-6-16,75,64,54,62,56,-100,92,77,50,29.97,29.77,5,1,6,0.00
2013-6-17,85,70,60,67,61,-100,96,77,45,29.94,29.83,6,1,8,0.00
2013-6-18,81,67,60,68,62,-100,94,85,57,29.91,29.85,12,1,23,0.08
2013-6-19,74,64,56,60,52,45,94,69,38,30.15,29.91,5,1,7,0.00
2013-6-20,79,64,51,57,50,-100,86,65,40,30.24,30.15,4,1,5,0.00
2013-6-21,82,68,57,64,56,-100,88,69,50,30.27,30.21,4,1,6,0.00
2013-6-22,83,68,59,62,55,-100,89,66,47,30.27,30.12,5,-4,6,0.00
2013-6-23,89,71,62,70,58,-100,89,69,46,30.18,30.06,5,1,7,0.00
2013-6-24,90,74,69,74,60,-100,94,73,52,30.12,29.94,4,0,6,0.21
2013-6-25,76,70,72,72,62,-100,92,85,87,29.85,29.80,0,-275,0,0.00
2013-6-26,79,73,69,72,70,68,98,88,75,29.85,29.80,4,-112,4,0.04
2013-6-27,83,73,66,73,70,65,100,91,70,29.85,29.56,10,-744,10,0.62
2013-6-28,82,74,69,79,71,-100,100,92,71,29.56,29.47,5,-671,5,0.25
2013-6-29,82,73,67,69,67,64,97,83,59,29.74,29.50,6,-8,9,0.00
2013-6-30,83,73,68,75,70,-100,98,91,76,29.94,29.74,7,-202,9,0.00
2013-7-1,73,72,69,73,71,69,100,98,94,30.06,29.91,4,-564,4,0.54
2013-7-2,81,74,71,79,73,71,100,97,83,30.18,30.06,4,-865,4,0.00
2013-7-3,85,76,70,76,73,70,99,91,71,30.24,30.15,3,-697,3,0.00
2013-7-4,87,78,72,77,72,-100,99,86,66,30.27,30.15,3,-709,3,0.00
2013-7-5,90,69,71,76,52,-100,97,73,58,30.21,30.09,4,-262,5,0.00
2013-7-6,91,70,72,76,52,-100,96,72,55,30.15,30.03,4,-9,6,0.00
2013-7-7,91,68,72,79,49,-100,96,71,62,30.09,29.94,3,-123,3,0.00
2013-7-8,88,72,69,72,57,-100,91,70,55,30.06,29.94,4,-86,6,0.00
2013-7-9,86,64,67,73,45,-100,96,72,63,30.09,30.00,6,-55,6,0.00
2013-7-10,82,69,71,78,59,-100,97,85,84,30.03,29.80,5,-252,5,0.21
2013-7-11,82,66,68,73,51,-100,98,78,66,29.97,29.80,3,-116,4,0.00
2013-7-12,79,59,66,68,36,-100,92,65,65,30.15,29.94,8,-71,9,0.00
2013-7-13,76,62,65,72,47,-100,97,80,83,30.30,30.15,8,-366,8,0.04
2013-7-14,88,66,72,77,48,-100,99,76,68,30.33,30.24,4,-250,5,0.00
2013-7-15,91,67,72,76,45,-100,96,69,58,30.27,30.15,5,-180,5,0.00
2013-7-16,92,66,70,72,42,-100,92,62,42,30.24,30.15,6,-46,6,0.00
2013-7-17,92,69,71,76,49,-100,93,68,50,30.21,30.06,3,-191,3,0.00
2013-7-18,93,68,72,78,48,-100,98,70,54,30.09,29.97,4,-421,5,0.04
2013-7-19,95,68,73,78,43,-100,94,65,53,30.00,29.80,4,-259,4,0.00
2013-7-20,92,61,73,77,34,-100,93,64,51,29.91,29.74,4,-48,4,0.04
2013-7-21,86,58,69,70,27,-100,91,57,45,30.00,29.85,4,-39,4,0.00
2013-7-22,82,70,67,73,58,-100,97,79,69,29.97,29.85,8,-12,8,0.13
2013-7-23,84,75,71,77,72,-100,99,92,75,29.85,29.56,5,-46,6,0.62
2013-7-24,78,71,63,71,64,-100,98,80,61,29.97,29.62,6,1,8,0.00
2013-7-25,67,63,59,60,54,46,87,71,59,30.06,29.94,6,1,6,0.00
2013-7-26,77,68,64,65,60,-100,92,79,57,30.03,29.97,5,1,5,0.00
2013-7-27,81,70,60,67,62,58,93,76,49,30.06,29.97,4,-50,5,0.00
2013-7-28,78,69,64,68,64,-100,97,86,69,30.00,29.94,7,-37,7,0.08
2013-7-29,80,71,64,70,65,58,99,82,59,30.12,29.97,4,-39,6,0.00
2013-7-30,79,68,60,60,58,56,90,72,46,30.15,30.09,4,-54,6,0.00
2013-7-31,80,69,60,63,59,55,90,73,44,30.15,30.03,4,-138,5,0.00
2013-8-1,73,66,64,67,63,-100,100,93,75,30.06,29.83,6,-351,9,0.29
2013-8-2,82,69,64,73,64,-100,100,86,55,29.91,29.80,4,-495,4,0.04
2013-8-3,74,66,63,73,62,-100,100,92,80,29.91,29.83,6,-394,6,0.00
2013-8-4,78,61,58,67,50,-100,100,83,48,29.94,29.85,6,-40,10,0.13
2013-8-5,76,60,55,56,44,-100,94,66,41,30.03,29.94,6,-4,7,0.00
2013-8-6,78,61,54,58,43,-100,89,65,45,30.12,30.03,5,1,6,0.00
2013-8-7,75,65,59,66,56,-100,93,79,66,30.15,30.06,10,1,10,0.00
2013-8-8,79,71,68,73,67,-100,99,92,79,30.06,30.00,4,0,4,0.04
2013-8-9,77,69,69,77,64,-100,100,94,98,30.03,29.80,7,-235,8,0.66
2013-8-10,80,65,62,78,56,-100,100,87,78,30.06,29.85,6,-432,6,0.00
2013-8-11,79,52,56,62,23,-100,92,58,47,30.12,30.00,4,-46,4,0.00
2013-8-12,82,56,62,65,30,-100,94,61,46,30.03,29.91,4,-19,5,0.00
2013-8-13,72,55,65,70,34,-100,98,76,89,29.94,29.71,6,-12,8,0.21
2013-8-14,73,54,57,65,30,-100,98,60,48,30.00,29.77,6,-15,8,0.00
2013-8-15,76,59,54,56,42,-100,88,65,44,30.15,30.00,4,-8,6,0.00
2013-8-16,80,65,55,60,54,-100,90,72,41,30.21,30.09,3,0,4,0.00
2013-8-17,79,66,57,62,58,54,91,76,49,30.27,30.18,6,0,6,0.00
2013-8-18,76,66,60,66,61,58,93,84,62,30.27,30.12,4,0,4,0.00
2013-8-19,77,68,60,67,61,-100,93,83,63,30.12,30.03,3,0,3,0.00
2013-8-20,84,71,62,68,63,60,97,80,46,30.15,30.03,4,0,5,0.00
2013-8-21,86,72,62,69,64,60,94,79,46,30.18,30.06,3,0,4,0.00
2013-8-22,79,71,65,73,68,62,97,90,76,30.09,29.85,4,0,6,0.00
2013-8-23,81,70,61,68,60,53,97,73,42,30.12,29.88,8,1,8,0.00
2013-8-24,77,65,56,56,52,48,83,64,42,30.33,30.12,6,-26,7,0.00
2013-8-25,81,66,55,61,55,51,90,69,41,30.36,30.18,5,0,5,0.00
2013-8-26,74,67,63,70,62,-100,98,86,76,30.21,29.91,3,0,4,0.21
2013-8-27,82,71,67,73,67,-100,100,91,67,29.91,29.80,6,1,8,0.58
2013-8-28,85,71,65,73,67,-100,98,88,64,29.91,29.85,5,0,5,0.00
2013-8-29,76,70,66,69,66,-100,98,89,73,30.03,29.91,6,1,8,0.00
2013-8-30,82,71,66,71,66,-100,97,86,63,30.03,29.85,4,0,4,0.00
2013-8-31,81,74,70,75,71,-100,98,92,81,29.85,29.80,3,0,6,0.00
2013-9-1,79,74,71,76,73,70,99,95,86,29.85,29.80,3,0,6,0.08
2013-9-2,77,72,68,76,70,-100,100,98,96,29.83,29.71,4,-8,4,0.09
2013-9-3,74,68,61,69,66,59,100,94,76,29.88,29.74,4,-37,6,0.00
2013-9-4,78,65,58,62,58,-100,96,80,47,29.97,29.85,4,1,5,0.00
2013-9-5,73,63,55,63,52,-100,94,71,44,30.12,29.88,6,1,6,0.00
2013-9-6,68,57,49,46,43,-100,80,62,42,30.21,30.09,5,-119,6,0.00
2013-9-7,75,61,48,59,50,-100,86,70,44,30.09,29.88,4,-16,4,0.00
2013-9-8,77,65,56,64,54,-100,91,70,44,30.09,29.80,6,1,6,0.00
2013-9-9,69,59,48,54,46,42,81,65,47,30.21,30.09,4,-40,4,0.00
2013-9-10,77,68,60,73,66,53,99,93,78,30.15,30.03,4,-95,6,0.08
2013-9-11,92,77,68,82,72,-100,100,87,63,30.12,29.97,6,-8,6,0.00
2013-9-12,80,72,68,76,70,-100,100,95,89,30.00,29.71,6,-167,6,1.00
2013-9-13,70,65,56,69,65,56,100,100,96,29.83,29.65,7,-466,7,0.04
2013-9-14,65,56,50,56,50,-100,99,82,60,30.09,29.83,5,-579,6,0.00
2013-9-15,68,56,46,52,48,43,92,76,47,30.15,30.03,3,-896,4,0.00
2013-9-16,70,59,52,57,53,41,94,80,58,30.21,29.97,4,-924,4,0.00
2013-9-17,65,53,44,46,41,36,82,64,44,30.36,30.21,6,-920,6,0.00
2013-9-18,71,56,44,50,45,40,88,70,43,30.30,30.15,0,-999,0,0.00
2013-9-19,75,58,47,54,48,-100,89,71,43,30.15,30.03,1,-986,1,0.00
2013-9-20,78,62,50,61,52,46,91,73,41,30.06,29.97,0,-991,0,0.00
2013-9-21,71,64,57,66,60,53,100,89,78,29.97,29.68,12,-599,12,0.41
2013-9-22,67,57,52,66,49,-100,100,85,70,29.88,29.65,7,-64,7,1.04
2013-9-23,65,51,45,44,35,-100,81,62,45,30.00,29.85,6,-2,7,0.00
2013-9-24,70,50,43,48,33,-100,82,62,42,30.00,29.83,6,-52,6,0.00
2013-9-25,70,53,46,52,37,-100,87,67,45,29.91,29.85,4,-38,6,0.00
2013-9-26,69,54,53,54,40,-100,92,72,53,30.09,29.91,6,-8,6,0.00
2013-9-27,64,55,48,54,46,-100,90,79,67,30.27,30.09,5,0,6,0.00
2013-9-28,72,55,49,56,43,-100,92,73,49,30.30,30.24,6,1,7,0.00
2013-9-29,72,47,49,58,21,-100,92,61,46,30.24,30.06,6,-28,6,0.00
2013-9-30,73,50,49,56,29,-100,91,65,49,30.06,29.94,4,-29,5,0.00
2013-10-1,77,49,50,59,22,-100,94,61,48,29.97,29.88,4,-20,5,0.00
2013-10-2,80,69,57,64,60,-100,94,74,55,30.00,29.91,5,-385,5,0.00
2013-10-3,76,63,52,58,54,-100,91,75,45,30.09,30.00,4,-335,4,0.00
2013-10-4,82,67,58,69,61,55,93,83,60,30.06,29.97,4,-160,6,0.00
2013-10-5,76,66,62,66,61,-100,97,87,70,30.09,30.03,4,0,4,0.08
2013-10-6,65,61,59,64,60,-100,100,99,96,30.12,30.03,8,2,10,0.58
2013-10-7,72,64,55,70,63,-100,100,99,92,30.03,29.77,8,-396,9,0.71
2013-10-8,65,55,48,58,50,45,100,86,50,30.30,29.94,8,-828,8,0.00
2013-10-9,63,53,46,47,44,-100,91,73,48,30.36,30.27,6,-507,6,0.00
2013-10-10,58,53,49,53,47,-100,86,82,79,30.27,30.09,5,-299,5,0.00
2013-10-11,67,60,54,59,53,-100,90,79,63,30.12,30.03,6,-343,6,0.00
2013-10-12,72,60,50,54,49,-100,84,68,47,30.33,30.09,11,-341,11,0.00
2013-10-13,66,56,50,51,48,46,89,74,53,30.39,30.27,10,-696,10,0.00
2013-10-14,69,55,45,50,46,41,87,75,48,30.33,30.18,0,-999,0,0.00
2013-10-15,72,58,49,58,49,41,92,74,54,30.24,30.09,4,-987,4,0.00
2013-10-16,62,56,51,55,50,44,90,79,69,30.09,29.88,0,-999,0,0.00
2013-10-17,75,64,58,63,58,55,97,85,52,29.88,29.68,0,-999,0,0.00
2013-10-18,68,59,50,62,48,40,98,68,43,29.91,29.65,6,-484,7,0.00
2013-10-19,64,53,43,50,41,-100,89,67,44,29.91,29.68,5,-379,5,0.12
2013-10-20,63,52,44,51,41,35,92,69,43,29.97,29.68,6,-853,6,0.00
2013-10-21,66,52,40,45,38,34,83,61,39,30.06,29.91,7,-793,7,0.00
2013-10-22,61,51,44,50,43,37,88,75,60,29.91,29.68,3,-837,3,0.00
2013-10-23,54,44,37,38,34,-100,83,68,47,29.77,29.56,3,-795,3,0.00
2013-10-24,55,44,35,36,30,25,80,60,40,29.88,29.68,0,-999,0,0.00
2013-10-25,51,42,35,32,27,-100,73,58,46,30.15,29.88,0,-999,0,0.00
2013-10-26,54,44,33,34,29,26,81,59,39,30.12,29.83,0,-999,0,0.00
2013-10-27,57,45,40,35,25,-100,63,49,40,30.03,29.77,0,-999,0,0.00
2013-10-28,61,41,34,38,17,-100,77,51,38,30.27,30.03,0,-999,0,0.00
2013-10-29,51,37,35,30,12,-100,70,48,44,30.36,30.27,0,-999,0,0.00
2013-10-30,52,39,36,42,20,-100,86,63,58,30.27,30.12,0,-999,0,0.00
2013-10-31,60,44,39,59,29,-100,100,81,84,30.18,29.77,0,-999,0,0.21
2013-11-1,67,52,50,65,38,-100,100,82,73,29.77,29.47,10,-215,13,0.08
2013-11-2,66,39,46,49,8,-100,96,58,46,29.74,29.59,6,-32,6,0.00
2013-11-3,47,33,32,42,3,-100,84,50,51,30.36,29.74,11,-47,17,0.00
2013-11-4,46,27,28,22,-10,-100,59,38,38,30.59,30.36,8,-167,8,0.00
2013-11-5,53,33,33,36,-1,-100,77,45,50,30.56,30.39,8,-21,8,0.00
2013-11-6,57,36,39,47,3,-100,88,54,60,30.42,30.00,8,-77,8,0.00
2013-11-7,58,40,36,56,17,-100,96,72,82,30.00,29.68,7,-31,9,0.21
2013-11-8,49,32,34,33,4,-100,89,56,48,30.09,29.83,11,-37,11,0.00
2013-11-9,46,34,35,29,6,-100,74,50,47,30.18,29.91,5,-66,7,0.00
2013-11-10,59,34,39,39,1,-100,75,48,47,29.91,29.74,8,-23,10,0.00
2013-11-11,52,34,36,32,-1,-100,66,41,45,30.09,29.88,8,-54,10,0.00
2013-11-12,47,24,24,34,-10,-100,84,50,51,30.18,29.85,9,-179,9,0.04
2013-11-13,25,19,22,18,-7,-100,74,58,70,30.15,30.15,2,-266,2,0.00
2013-11-16,60,51,42,40,36,31,81,56,39,30.27,30.21,3,-792,3,0.12
2013-11-17,59,52,44,58,50,-100,100,93,81,30.21,29.77,7,-777,9,0.00
2013-11-18,64,55,44,60,46,-100,100,76,49,29.77,29.53,8,3,13,0.00
2013-11-19,49,40,31,28,22,-100,54,49,42,30.27,29.71,9,3,11,0.00
2013-11-20,42,32,26,19,16,14,63,50,40,30.53,30.27,6,2,8,0.00
2013-11-21,48,37,23,33,24,15,73,60,46,30.53,30.33,6,1,9,0.00
2013-11-22,53,46,42,49,42,33,94,86,69,30.33,29.83,4,1,6,0.00
2013-11-23,50,39,26,46,26,11,89,59,42,29.94,29.80,9,2,13,0.00
2013-11-24,30,24,20,11,6,-100,48,42,21,30.21,29.88,10,-46,15,0.00
2013-11-25,34,26,16,15,8,-100,62,47,41,30.33,30.21,6,2,8,0.00
2013-11-26,40,32,30,39,18,-100,97,59,44,30.24,29.80,11,-2,18,0.42
2013-11-27,58,41,32,58,36,-100,100,95,96,29.80,29.32,16,3,22,2.48
2013-11-28,34,25,24,32,10,-100,100,73,57,30.39,29.59,7,2,11,0.00
2013-11-29,36,14,25,25,-39,-100,87,38,53,30.62,30.36,6,1,8,0.00
2013-11-30,38,19,23,32,-26,-100,80,33,43,30.65,30.30,8,2,8,0.00
2013-12-1,45,36,30,32,27,-100,81,70,58,30.30,29.94,4,1,4,0.04
2013-12-2,43,34,30,34,28,-100,88,80,69,29.94,29.83,3,0,4,0.00
2013-12-3,45,34,29,37,29,-100,92,83,68,29.94,29.83,5,1,5,0.00
2013-12-4,50,38,29,36,31,26,92,77,55,30.09,29.94,4,1,5,0.00
2013-12-5,53,49,41,53,48,35,100,95,77,30.09,29.91,5,1,7,0.05
2013-12-6,53,43,33,53,42,32,100,96,86,30.12,29.83,6,-114,6,0.20
2013-12-7,37,32,25,32,29,-100,96,88,79,30.42,30.03,0,-999,0,0.00
2013-12-8,30,26,21,23,20,17,84,74,64,30.50,30.33,5,-802,6,0.00
2013-12-9,34,30,26,34,27,-100,100,93,80,30.33,29.88,8,2,14,0.00
2013-12-10,33,28,21,33,25,-100,100,95,90,30.00,29.80,3,1,4,0.00
2013-12-11,30,22,19,23,8,-100,91,73,68,30.18,30.00,4,-3,5,0.00
2013-12-12,26,18,13,17,4,-100,78,62,49,30.24,30.03,4,1,6,0.00
2013-12-13,33,24,15,18,11,-100,67,57,51,30.27,29.97,9,-18,9,0.04
2013-12-14,22,19,15,19,12,-100,86,71,57,30.42,29.83,15,4,15,0.00
2013-12-15,34,26,22,32,23,-100,98,87,81,29.83,29.47,17,-328,21,0.00
2013-12-16,29,22,12,22,12,-100,81,63,49,30.15,29.71,9,-106,9,0.00
2013-12-17,21,17,8,17,10,0,80,74,64,30.15,29.85,6,-3,8,0.00
2013-12-18,34,23,13,23,16,-100,80,72,60,30.06,29.85,5,-131,5,0.05
2013-12-19,42,31,22,28,23,16,81,71,55,30.09,29.91,6,-548,6,0.04
2013-12-20,48,38,32,33,29,27,83,71,54,30.06,29.88,0,-999,0,0.25
2013-12-21,53,44,34,48,38,29,96,81,70,29.94,29.83,0,-999,0,0.00
2013-12-22,64,58,50,63,56,-100,100,94,81,29.94,29.74,12,-578,12,0.00
2013-12-23,60,49,36,58,48,-100,100,97,90,30.09,29.88,10,-340,18,3.29
2013-12-24,60,31,22,58,22,-100,98,71,52,30.21,29.92,10,-56,18,3.29
2013-12-25,26,20,14,10,7,-100,70,57,47,30.39,30.21,6,-28,8,0.00
2013-12-26,32,26,22,24,17,-100,79,70,56,30.33,30.03,6,-90,6,0.00
2013-12-27,36,29,23,22,19,16,80,67,52,30.24,30.15,5,-40,6,0.00
2013-12-28,48,34,24,31,24,18,81,68,50,30.18,29.97,6,-3,7,0.00
2013-12-29,39,35,31,38,32,25,99,86,71,30.00,29.44,6,-113,7,1.03
2013-12-30,38,31,17,36,24,-100,99,78,56,30.12,29.59,6,-3,8,0.00
2013-12-31,27,20,14,18,10,5,72,63,55,30.15,29.94,6,-565,6,0.00
2014-1-1,32,24,16,16,10,-100,68,57,47,30.27,30.15,6,-40,6,0.00
2014-1-2,24,20,10,16,13,4,77,74,68,30.21,29.65,10,-9,11,0.00